Lapse_Rate
6.4 6.5 6.6 6.7 6.7 6.9 6.9 6.8 6.7 6.7 6.7 6.7 6.8 6.7 6.7 6.6 6.6 6.5 6.5 6.3 6.3 6.2 6.3 6.3 6.3 6.4 6.5 6.4 6.5 6.5 6.5 6.5 6.6 6.6 6.7 6.8 6.9 6.9 7.0 7.1 7.1 7.2 7.3 7.4 7.3 7.2 7.2
6.4 6.6 6.7 6.8 6.8 6.9 6.9 6.8 6.7 6.7 6.6 6.6 6.6 6.6 6.6 6.5 6.4 6.3 6.3 6.2 6.1 6.2 6.3 6.3 6.3 6.3 6.3 6.3 6.4 6.4 6.4 6.4 6.4 6.4 6.5 6.6 6.8 6.9 7.0 7.1 7.1 7.3 7.4 7.4 7.5 7.2 7.3
6.5 6.6 6.7 6.8 6.7 6.7 6.8 6.7 6.7 6.6 6.6 6.5 6.5 6.5 6.5 6.4 6.3 6.2 6.1 6.1 6.1 6.1 6.0 6.1 6.0 6.1 6.1 6.3 6.4 6.4 6.4 6.4 6.4 6.4 6.3 6.3 6.5 6.6 6.8 7.0 7.2 7.2 7.3 7.2 7.6 7.3 6.8
6.6 6.7 6.7 6.7 6.7 6.7 6.7 6.7 6.7 6.7 6.7 6.7 6.5 6.4 6.4 6.3 6.1 6.0 6.1 6.1 6.1 6.1 6.3 6.3 6.3 6.3 6.3 6.3 6.3 6.4 6.3 6.4 6.5 6.6 6.7 6.7 6.7 6.7 6.7 6.8 6.8 6.8 6.9 7.3 7.6 7.5 7.1
6.6 6.6 6.6 6.7 6.7 6.7 6.7 6.8 6.7 6.7 6.6 6.5 6.3 6.2 6.2 6.1 6.1 6.2 6.3 6.3 6.3 6.3 6.3 6.3 6.4 6.4 6.4 6.4 6.3 6.4 6.5 6.5 6.5 6.6 6.7 6.7 6.8 6.9 7.0 6.8 6.5 6.7 6.7 7.1 7.3 7.6 7.0
6.6 6.5 6.6 6.6 6.6 6.6 6.6 6.5 6.4 6.5 6.4 6.3 6.3 6.3 6.2 6.2 6.2 6.1 6.3 6.3 6.4 6.5 6.5 6.5 6.5 6.4 6.4 6.5 6.5 6.5 6.5 6.6 6.5 6.6 6.6 6.8 6.8 6.9 7.1 6.6 6.3 6.6 6.7 6.8 7.2 7.5 7.1
6.2 6.3 6.4 6.5 6.5 6.5 6.4 6.4 6.4 6.3 6.2 6.2 6.1 6.1 6.2 6.1 6.1 6.1 6.2 6.4 6.4 6.5 6.6 6.5 6.4 6.5 6.5 6.5 6.8 6.8 6.7 6.6 6.6 6.5 6.4 6.7 6.8 7.2 6.7 6.7 6.7 6.7 6.5 6.4 7.4 7.5 6.3
6.2 6.2 6.4 6.5 6.5 6.4 6.2 6.2 6.2 6.2 6.0 6.0 6.0 5.9 5.9 6.0 6.1 6.1 6.2 6.2 6.3 6.2 6.3 6.1 6.0 6.0 6.3 6.7 6.6 6.6 6.4 6.4 6.4 6.4 6.4 6.5 7.2 7.0 6.9 6.8 6.8 6.7 6.5 7.0 7.1 7.3 6.8
6.2 6.3 6.3 6.2 6.2 6.2 6.3 6.2 6.1 6.0 5.9 5.9 5.9 6.0 6.1 6.1 6.1 6.0 6.0 6.0 6.0 5.9 5.8 5.7 5.4 5.5 5.7 6.1 6.4 6.3 6.4 6.3 6.4 6.4 6.3 6.4 6.8 6.7 6.7 6.8 7.0 6.8 7.0 7.2 6.9 7.0 7.1
6.3 6.4 6.2 6.2 6.1 6.2 6.1 6.1 5.9 5.9 5.8 5.9 5.9 6.0 5.9 5.9 5.8 5.7 5.7 5.7 5.8 5.8 5.7 5.5 5.5 5.6 5.7 6.1 6.2 6.3 6.3 6.3 6.3 6.2 6.2 6.4 6.9 6.7 6.7 7.0 7.2 6.7 7.3 7.1 7.1 6.9 6.7
6.4 6.1 6.1 6.0 6.1 6.0 5.9 5.7 5.7 5.7 5.9 6.0 5.9 5.7 5.6 5.5 5.4 5.4 5.4 5.5 5.6 5.6 3.5 5.7 5.6 5.7 5.8 6.0 5.9 5.9 5.9 6.1 6.2 6.0 6.1 6.5 6.5 6.5 6.6 7.1 7.0 7.0 7.0 7.0 7.0 6.8 6.6
6.3 6.2 6.2 6.1 5.8 5.7 5.6 5.6 5.7 5.8 5.9 5.8 5.7 5.6 5.4 5.5 5.5 5.5 5.5 5.5 5.5 5.8 4.8 5.8 5.9 5.9 6.0 5.9 6.0 6.1 6.1 6.3 6.2 6.2 6.1 6.3 6.2 6.4 6.7 6.8 7.0 7.0 6.8 6.7 6.6 6.5 5.6
6.3 6.3 6.0 5.9 5.7 5.5 5.4 5.6 5.7 5.8 5.8 5.7 5.6 5.6 5.6 5.6 5.5 5.3 5.4 5.5 5.8 6.1 6.0 6.0 6.1 6.2 6.3 6.5 6.3 6.3 6.3 6.4 6.2 5.6 5.9 6.2 6.4 6.7 6.8 6.8 7.0 7.2 6.7 5.9 5.7 5.2 5.5
5.9 5.8 5.8 5.7 5.5 5.4 5.5 5.7 5.8 5.8 5.8 5.7 5.7 5.7 5.6 5.5 5.4 5.4 5.5 5.7 5.9 5.9 6.2 6.1 6.0 6.1 6.3 6.4 6.2 6.2 5.9 6.0 6.2 6.1 5.7 5.5 5.5 6.4 6.5 6.8 6.8 7.0 7.1 6.9 6.4 5.7 6.7
6.1 5.8 5.7 5.5 5.5 5.6 5.7 5.7 5.7 5.6 5.7 5.7 5.8 5.6 5.5 5.5 5.5 5.5 5.6 5.8 6.1 6.0 6.1 6.0 6.0 5.8 5.8 6.0 6.0 5.9 5.9 5.6 5.6 5.6 5.6 5.8 5.8 6.2 6.4 6.6 6.8 6.9 7.0 7.6 7.6 7.4 6.5
6.0 5.9 5.6 5.4 5.5 5.7 5.7 5.8 5.8 5.8 5.8 5.7 5.6 5.5 5.5 5.4 5.5 5.5 5.6 5.8 5.8 6.0 5.8 5.7 5.7 5.7 5.8 5.8 5.7 5.8 5.7 5.5 5.8 5.5 5.4 5.6 5.3 5.6 6.1 6.7 7.0 7.1 7.4 7.3 7.0 6.7 6.7
5.9 5.8 5.6 5.7 5.8 5.8 5.8 5.9 5.9 5.8 5.8 5.6 5.5 5.6 5.4 5.4 5.5 5.6 5.7 5.6 5.7 5.9 5.7 5.5 5.4 5.3 5.2 5.2 5.0 4.8 5.1 5.2 5.2 5.5 5.6 5.6 5.7 5.4 5.9 6.3 7.0 7.0 7.0 7.2 7.6 7.7 7.5
6.0 5.8 5.8 5.8 5.8 5.9 5.9 6.0 5.8 5.8 5.7 5.6 5.5 5.6 5.6 5.5 5.5 5.6 5.6 5.6 5.6 5.8 5.7 5.4 5.3 5.3 5.0 4.8 4.6 4.5 4.4 4.6 4.5 4.4 4.9 5.7 5.7 5.5 5.9 6.4 6.8 7.0 7.0 7.4 7.5 7.3 7.6
6.2 6.0 5.9 5.7 5.8 6.0 5.8 5.9 5.8 5.6 5.4 5.5 5.6 5.6 5.6 5.4 5.5 5.6 5.4 5.4 5.4 5.6 5.8 5.5 5.2 5.1 5.0 4.4 4.2 3.8 4.0 4.1 4.3 4.7 5.1 4.8 5.1 4.9 5.7 6.2 6.7 6.7 6.7 6.6 6.7 6.9 7.3
5.9 6.0 5.7 5.7 5.8 5.8 5.8 5.8 5.7 5.6 5.6 5.5 5.5 5.5 5.7 5.6 5.6 5.4 5.3 5.4 5.5 5.4 5.4 5.4 5.1 4.8 4.5 4.1 3.7 3.7 3.7 4.0 4.3 4.7 5.1 4.8 4.3 4.6 5.2 5.3 5.2 4.9 6.2 6.0 6.1 6.7 6.7
5.7 5.8 5.7 5.8 5.6 5.7 5.6 5.6 5.4 5.5 5.5 5.5 5.6 5.5 5.5 5.5 5.5 5.4 5.4 5.5 5.4 5.2 5.1 4.7 4.3 3.9 3.4 3.0 3.0 3.3 3.6 3.7 4.1 4.4 4.0 3.9 3.9 4.6 4.6 4.9 5.3 5.3 5.3 5.5 6.0 6.5 7.3
5.9 5.8 5.7 5.7 5.7 5.7 5.6 5.3 5.2 5.1 5.1 5.4 5.4 5.4 5.4 5.4 5.4 5.4 5.4 5.4 5.2 4.9 4.5 4.4 3.9 3.7 3.5 3.4 3.2 3.0 3.4 3.7 3.6 3.8 3.7 3.8 4.2 4.7 4.9 6.1 6.3 5.7 6.3 6.6 6.5 6.2 6.7
5.7 5.7 5.6 5.6 5.5 5.5 5.5 5.3 5.4 5.3 5.4 5.4 5.5 5.4 5.5 5.3 5.3 5.4 5.3 5.0 4.8 4.3 3.9 3.6 3.2 2.9 3.1 3.3 3.4 3.8 3.8 4.1 4.1 4.5 5.0 5.5 5.8 5.9 6.1 7.4 6.8 6.5 6.7 6.9 7.0 6.7 6.8
5.5 5.4 5.4 5.3 5.4 5.3 5.4 5.4 5.5 5.6 5.6 5.4 5.4 5.5 5.6 5.5 5.5 5.3 5.0 4.7 4.1 3.9 3.6 3.2 3.0 2.8 3.3 3.5 3.8 4.4 4.6 5.3 6.0 6.7 7.0 6.9 6.9 6.9 7.2 7.8 7.5 7.3 7.7 7.2 6.9 6.4 6.0
5.1 5.1 5.0 5.2 5.2 5.2 5.3 5.4 5.6 5.6 5.5 5.3 5.5 5.7 5.6 5.5 5.3 5.0 4.5 3.9 3.4 3.4 3.2 2.8 3.0 3.1 3.6 4.0 4.2 4.9 5.8 6.6 7.0 7.3 7.7 7.7 7.6 7.6 8.2 8.2 8.0 7.6 7.4 7.3 7.1 6.9 6.5
4.9 4.8 5.0 5.0 5.1 5.2 5.3 5.4 5.5 5.3 5.3 5.4 5.5 5.5 5.4 5.4 4.7 4.4 3.8 3.3 3.2 3.4 3.4 3.5 3.7 3.9 4.3 4.8 5.5 6.1 6.7 6.8 6.8 7.4 8.2 8.3 8.4 8.2 8.3 8.1 8.3 6.7 7.3 7.4 7.4 6.8 6.8
4.8 4.8 4.8 4.9 5.1 5.1 5.3 5.3 5.1 5.1 5.1 5.1 4.9 4.8 4.8 4.5 3.9 3.4 3.0 3.0 2.9 3.1 3.5 3.9 4.1 4.4 5.3 6.0 6.4 6.5 6.8 6.9 7.2 7.7 7.9 8.5 8.4 8.3 8.2 8.3 8.0 7.6 7.5 7.4 7.2 6.6 6.7
4.7 4.8 4.9 4.9 5.0 5.2 5.0 4.9 5.0 5.0 4.8 4.7 4.5 4.2 4.0 3.6 3.2 2.9 2.8 3.1 3.1 3.3 3.5 3.7 4.1 4.9 5.9 6.2 6.3 6.6 6.8 7.3 7.7 8.3 8.4 8.2 8.3 8.2 8.2 8.2 7.6 7.9 7.7 7.2 6.7 7.0 6.5
4.7 4.8 4.8 5.0 5.2 5.0 4.9 4.8 4.8 4.7 4.4 4.2 4.0 3.7 3.2 3.2 3.1 2.9 3.0 3.4 3.5 3.5 3.7 4.4 5.3 5.9 6.0 6.0 6.2 6.4 6.9 7.4 8.0 8.2 8.3 8.2 8.2 8.0 7.9 8.0 7.8 7.2 7.0 6.9 6.6 6.6 6.6
Wind_Speed
12 11 10 11 12 13 14 15 16 16 17 18 19 19 20 20 20 20 19 18 17 15 14 11 8 8 2 2 3 3 3 6 4 3 4 2 3 2 2 1 3 1 3 3 5 5 5
9 9 10 11 12 14 14 15 16 17 18 19 19 20 21 21 21 21 20 20 18 16 12 8 5 6 1 0 3 2 3 4 5 4 3 5 2 1 3 0 1 2 4 7 6 4 4
7 9 9 11 12 13 14 16 17 18 19 19 20 21 21 21 22 21 21 20 21 15 8 4 2 0 3 2 3 2 3 1 2 2 2 2 1 2 3 1 2 2 6 7 5 3 5
7 8 9 11 12 13 15 16 17 18 19 20 21 22 22 22 22 21 20 20 19 8 3 1 1 1 2 3 2 1 1 2 3 3 4 2 3 3 2 2 4 3 3 4 1 3 2
6 7 9 11 12 14 15 17 18 19 20 21 22 24 24 23 22 21 20 19 6 2 1 1 1 2 1 1 0 1 1 2 2 2 4 2 3 3 3 3 4 5 3 3 9 6 2
6 8 9 11 12 14 15 17 18 20 21 22 24 25 24 23 22 21 20 8 2 2 1 0 1 2 2 0 0 2 1 3 2 1 3 4 4 3 3 3 4 4 3 4 6 1 0
5 7 9 10 12 14 15 17 19 20 22 23 25 25 24 22 21 18 8 3 5 2 6 0 1 3 2 3 1 3 1 3 2 5 1 3 2 6 8 7 2 1 3 5 5 4 3
5 7 9 11 12 14 16 18 19 21 22 24 25 24 22 19 18 15 3 5 2 3 6 2 2 3 4 2 3 1 1 2 2 1 1 4 6 4 3 3 4 3 2 7 6 3 5
6 7 9 11 13 15 17 18 19 21 22 24 24 22 21 22 9 6 5 4 5 2 0 5 1 2 1 1 0 2 3 2 1 1 3 5 2 2 2 3 3 4 5 4 8 3 4
5 7 10 13 15 16 18 19 21 22 22 23 22 19 19 21 6 2 3 6 6 3 5 5 4 2 2 1 2 1 3 2 1 2 2 5 4 3 1 4 6 3 9 6 3 2 5
5 7 10 13 14 17 18 20 21 22 23 23 20 17 13 13 3 3 4 10 4 2 4 3 3 2 1 2 3 2 1 2 3 1 3 7 3 2 3 7 6 8 4 4 3 4 2
5 8 11 12 15 18 20 21 22 23 23 24 19 16 8 4 3 1 9 5 3 6 4 4 3 4 5 1 1 2 2 2 1 2 3 7 3 4 7 5 8 1 1 5 4 3 2
6 8 11 14 16 18 20 21 22 23 23 24 17 12 6 2 2 11 6 3 5 5 4 5 4 5 2 4 3 2 3 4 1 6 3 5 5 3 3 2 1 2 5 3 3 1 7
6 7 10 14 17 18 20 22 24 24 23 21 13 5 4 3 8 6 3 5 4 3 2 3 4 6 2 6 4 5 2 4 4 1 3 3 8 4 3 5 4 5 7 5 6 4 9
4 7 11 14 17 20 21 23 24 25 23 18 4 2 2 5 8 2 5 4 3 1 2 6 6 3 4 3 4 6 2 4 4 6 2 4 6 3 4 3 5 3 5 5 3 1 2
4 8 11 14 17 20 23 24 26 25 23 12 2 2 2 16 7 4 5 3 1 2 4 2 2 3 2 5 6 6 1 5 7 6 4 5 8 4 3 1 5 5 2 0 1 3 9
5 8 11 14 18 20 24 27 28 25 21 5 3 3 3 18 3 5 4 1 2 4 6 5 3 4 3 4 4 3 4 5 7 10 7 7 2 10 4 5 10 3 4 4 2 4 10
6 8 11 15 18 21 24 27 29 24 18 7 2 2 4 5 4 2 3 3 6 6 9 5 3 3 3 5 3 3 4 5 8 7 7 4 5 6 11 15 11 6 6 6 5 6 4
7 8 11 15 18 21 24 26 28 23 14 2 3 1 3 3 3 2 3 4 4 7 6 6 6 6 4 2 3 2 4 6 13 9 10 6 4 6 8 8 4 3 4 3 2 2 6
7 10 11 15 18 21 24 27 29 23 12 4 3 2 4 4 2 4 2 3 3 5 3 3 4 5 4 5 4 5 5 4 13 6 20 4 5 10 13 15 14 16 23 16 11 4 3
8 10 10 14 17 20 25 28 30 24 10 4 4 1 1 3 4 5 3 2 3 5 4 7 3 6 4 3 4 4 4 9 3 12 3 7 9 11 17 19 19 20 20 22 19 15 8
9 11 12 14 16 20 23 28 31 28 5 4 3 3 3 2 2 4 5 2 2 3 3 3 3 5 2 4 4 10 5 4 5 4 2 2 10 15 22 25 20 21 21 18 15 12 6
11 11 11 13 16 18 20 23 28 32 8 3 1 2 4 3 2 3 1 1 3 2 1 1 1 1 4 4 4 11 9 12 10 8 3 3 3 6 7 12 12 11 8 5 6 6 3
11 11 12 13 14 16 18 21 22 27 17 3 1 3 3 2 3 3 2 1 1 1 2 4 3 1 2 6 7 7 6 10 8 8 8 3 3 4 5 4 2 3 10 8 14 15 17
11 10 11 12 13 14 16 18 20 19 18 4 1 3 3 3 3 3 3 2 2 4 1 3 2 2 5 4 3 6 4 4 0 4 6 5 2 4 5 8 2 7 10 8 7 7 15
11 9 9 11 10 11 13 14 15 16 13 6 3 2 3 4 3 4 3 1 1 3 5 3 4 4 3 1 2 2 2 2 4 7 4 3 3 1 3 5 5 3 16 20 11 3 15
10 10 10 8 8 10 10 11 12 11 11 6 3 5 4 3 1 3 2 2 4 1 2 4 5 5 2 2 2 1 3 1 2 2 4 4 3 2 5 3 2 10 20 15 5 6 18
10 10 8 7 7 7 9 10 10 8 5 5 1 7 3 2 3 2 1 3 2 1 1 3 3 2 2 1 1 2 1 3 1 3 4 1 3 2 3 3 3 16 7 6 6 12 14
9 8 7 6 5 5 6 7 8 10 5 4 3 3 2 1 4 1 3 3 5 6 3 1 2 2 2 1 2 2 3 1 3 2 4 1 3 3 2 2 5 3 7 7 8 11 11
Wind_Direction
53 42 35 25 16 12 7 4 1 356 354 352 348 345 343 341 339 337 335 331 329 326 325 323 313 323 342 19 308 342 47 354 7 36 50 68 82 129 180 209 339 202 318 304 298 297 264
51 35 23 20 12 9 5 3 0 356 352 349 346 344 341 339 336 334 331 328 324 321 318 323 314 319 104 321 287 110 7 359 26 39 28 37 70 89 90 107 168 321 288 275 280 268 231
47 30 23 17 12 8 4 2 358 353 351 347 344 341 338 336 333 332 329 325 321 316 309 317 287 348 70 232 340 107 46 57 26 76 78 26 61 98 147 158 323 323 328 314 222 223 230
30 25 18 16 12 7 3 0 356 351 348 346 343 339 336 334 331 331 327 323 321 319 318 184 169 18 214 335 116 106 40 39 53 50 99 107 75 101 54 325 17 15 52 353 318 162 201
19 21 21 14 11 7 3 359 355 351 348 345 342 338 335 332 330 328 325 323 329 52 78 122 5 113 336 13 126 287 145 129 87 47 30 92 70 97 39 85 1 9 245 225 314 203 140
24 23 19 14 11 6 1 358 354 350 347 345 341 336 333 330 328 327 325 315 346 106 45 273 121 27 333 213 179 96 354 124 96 60 29 44 45 77 46 96 233 250 244 241 250 331 214
33 21 14 13 10 6 1 356 352 348 345 342 339 335 333 331 329 331 345 26 17 346 34 62 276 253 345 313 17 41 55 88 43 45 325 5 31 221 216 205 177 188 209 253 256 251 236
43 24 16 9 6 2 359 354 350 348 346 342 339 337 336 334 331 339 64 73 74 218 318 3 267 286 246 286 359 59 61 100 65 284 345 360 245 234 190 183 204 186 256 260 283 248 185
35 23 12 7 2 0 356 354 352 349 346 343 340 337 336 335 333 38 78 70 316 159 78 312 277 5 336 128 254 331 131 97 157 239 210 203 249 73 154 239 198 188 207 228 237 339 251
53 22 9 4 2 359 357 353 352 349 347 345 341 338 340 336 56 311 60 327 340 186 63 317 350 2 12 55 38 346 179 119 232 246 199 237 299 275 250 264 170 250 225 239 265 64 261
43 20 14 3 0 359 357 353 350 348 346 346 343 340 350 28 144 50 305 322 307 62 26 317 359 288 17 72 295 9 342 41 241 239 102 254 261 253 224 223 167 238 151 188 183 184 357
44 18 8 7 2 359 356 353 350 348 347 346 343 344 359 22 47 91 323 322 51 44 264 354 335 357 10 0 357 3 33 10 225 294 233 243 308 251 221 221 194 113 107 55 48 104 257
51 29 11 6 2 359 356 354 352 349 347 345 343 345 26 27 321 328 327 52 37 120 295 331 329 359 352 306 0 36 10 335 258 343 324 322 235 257 197 236 127 134 71 321 326 2 232
33 35 20 9 1 0 358 356 353 350 348 344 339 9 14 65 331 338 45 51 83 286 348 340 322 320 351 14 11 351 6 318 28 6 316 260 318 191 179 214 203 184 169 171 223 241 282
65 33 22 15 7 1 359 357 354 350 348 343 351 3 38 328 347 46 73 61 196 194 275 332 322 15 332 10 22 25 29 348 28 4 286 308 266 311 230 229 157 197 183 195 199 150 83
36 35 26 18 10 6 1 357 357 351 350 350 73 51 319 340 6 62 72 138 117 22 343 354 278 40 295 323 356 18 314 353 339 10 338 300 297 217 327 332 254 186 193 169 356 231 254
52 27 32 21 14 8 6 359 358 353 351 352 54 59 273 344 70 50 104 146 66 45 18 7 338 324 2 346 340 303 309 23 358 339 38 4 289 285 340 220 263 299 257 235 191 182 253
62 35 30 26 19 11 9 4 357 356 353 43 85 40 322 357 47 32 77 5 8 0 14 5 70 61 15 4 314 277 360 85 17 11 16 320 289 273 270 281 271 219 244 209 226 258 232
80 50 32 30 21 14 10 7 2 360 12 99 80 308 333 50 98 40 1 53 66 16 27 15 26 49 2 353 321 310 355 172 28 28 13 337 308 310 295 310 14 339 12 34 319 256 231
77 60 37 31 24 16 11 8 6 2 12 77 78 38 351 40 38 102 81 23 46 19 60 32 31 59 24 1 11 307 323 346 345 348 320 308 236 258 281 292 317 299 306 315 303 233 254
88 65 42 35 29 20 14 9 8 5 15 88 28 110 200 26 29 72 76 29 35 8 18 20 76 59 3 306 292 244 321 325 317 299 28 340 280 295 291 295 302 293 290 295 284 290 270
95 68 46 38 34 28 21 11 9 11 39 80 108 127 35 80 39 65 15 40 78 332 333 16 35 337 258 241 239 299 271 233 249 295 315 263 284 286 281 278 270 283 288 280 273 280 287
95 75 57 46 39 35 30 22 16 16 54 85 10 43 101 342 79 101 86 129 98 273 241 100 300 288 287 268 277 275 255 271 257 287 304 239 257 290 270 293 288 277 338 284 94 17 306
97 80 68 54 48 40 37 34 29 29 45 97 122 103 83 84 81 101 117 106 42 329 272 312 346 184 268 329 291 277 250 254 265 256 202 228 236 254 287 317 273 71 10 15 65 35 25
104 90 73 59 55 50 48 43 35 35 47 71 59 86 97 106 107 120 123 112 307 322 284 268 268 236 318 314 329 326 337 3 307 213 209 230 281 303 322 311 229 3 347 346 350 59 25
110 95 77 70 64 52 48 45 42 34 31 67 42 86 90 115 229 114 117 101 22 348 341 265 307 317 359 313 317 277 292 306 325 329 230 272 180 185 315 338 346 346 318 318 299 129 11
117 98 85 76 64 49 52 52 45 42 36 71 39 32 73 96 244 116 139 151 124 80 278 309 328 343 358 17 284 295 287 249 293 292 305 315 343 222 302 269 133 346 321 310 50 325 332
114 100 90 83 64 49 43 47 47 44 40 62 57 36 94 103 296 157 164 130 107 130 201 277 358 340 354 3 260 302 212 263 279 250 292 308 317 313 313 321 292 359 9 46 315 316 325
118 107 95 85 79 58 38 37 31 36 80 61 55 32 76 66 223 213 226 218 192 209 151 301 204 238 235 7 250 289 282 295 222 272 19 92 355 299 2 346 26 11 70 355 343 316 322